Regional Weather Roundup
Issued by NWS

Home | Current Version | Previous Version | Graphics & Text | Print | Product List | Glossary On
Versions: 1 2 3 4 5 6 7 8 9 10 11 12 13 14 15 16 17 18 19 20 21 22 23 24 25 26 27 28 29 30 31 32 33 34 35 36 37 38 39 40 41 42 43 44 45 46 47 48 49 50
000
ASUS43 KIND 271259
RWRIN

WEATHER ROUNDUP FOR INDIANA
NATIONAL WEATHER SERVICE INDIANAPOLIS IN
900 AM EDT WED MAY 27 2015

NOTE: "FAIR" INDICATES FEW OR NO CLOUDS BELOW 12,000 FEET WITH NO
SIGNIFICANT WEATHER AND/OR OBSTRUCTIONS TO VISIBILITY.

* - STATION DOES NOT REPORT WEATHER SUCH AS PRECIPITATION OR FOG.

+ - STATION NOT QUALITY CONTROLLED BY THE NATIONAL WEATHER SERVICE.
    USE DATA WITH CAUTION...ESPECIALLY DEWPOINT AND RELATIVE
    HUMIDITY OBSERVATIONS.

INZ001>003-010>013-019-020-271400-
NORTHWEST INDIANA

CITY           SKY/WX    TMP DP  RH WIND       PRES   REMARKS
GARY /AIRPORT/ PTSUNNY   70  63  78 SW13G24   29.96R
MONTICELLO +   MOSUNNY   69  64  85 SW14G21   30.01R
RENSSELAER +   CLOUDY    68  64  88 SW16G22   30.00R

$$

LMZ046-743>745-271400-
SOUTHERN LAKE MICHIGAN

STATION/POSITION TIME  TEMP    WIND        PRES    WAVE
                       AIR SEA DIR/SP/G            HT
                 (UTC) (F)     (DEG/KT/KT) (MB)    (FT)
BURNS HARBOR     1200   68     220/ 10/ 18 1014.2F
MICHIGAN CITY    1200   66     190/ 16/ 20   N/A
5NW MICH CITY    1200   61 52  230/ 10/ 16   N/A     2

$$

INZ004-005-014>016-021>024-271400-
NORTH CENTRAL INDIANA

CITY           SKY/WX    TMP DP  RH WIND       PRES   REMARKS
ELKHART        PTSUNNY   68  63  83 SW12G21   29.97S
GOSHEN         PTSUNNY   70  62  76 SW20      29.98R
SOUTH BEND     MOSUNNY   69  62  78 SW13      29.97R
WARSAW +       SUNNY     70  61  73 SW9G16    29.99S

$$

INZ006>009-017-018-025>027-271400-
NORTHEAST INDIANA

CITY           SKY/WX    TMP DP  RH WIND       PRES   REMARKS
ANGOLA *+      MOSUNNY   70  63  78 SW12      29.98S
FORT WAYNE     MOSUNNY   70  63  78 SW18G24   30.02S

$$

INZ028-029-035-036-043>045-051>053-271400-
WEST CENTRAL INDIANA

CITY           SKY/WX    TMP DP  RH WIND       PRES   REMARKS
CRAWFORDSVL +  PTSUNNY   68  59  74 SW12      30.05R
GREENCASTLE +  MOSUNNY   68  59  73 SW6       30.08R
LAFAYETTE      MOSUNNY   70  63  78 SW10G24   30.02R
TERRE HAUTE    MOSUNNY   69  64  84 SW9       30.07R

$$

INZ030>032-037>040-046>048-054>057-064-065-271400-
CENTRAL INDIANA

CITY           SKY/WX    TMP DP  RH WIND       PRES   REMARKS
ANDERSON       SUNNY     66  59  77 S12G17    30.07
GREENWOOD *+   MOSUNNY   68  61  77 SW8       30.09R
INDIANAPOLIS   MOSUNNY   69  62  78 SW13      30.06R
-EAGLE CREEK   MOSUNNY   69  63  81 S10       30.06R
KOKOMO *+      MOSUNNY   72  63  73 SW20      30.04R
MT COMFORT *+  SUNNY     68  68 100 SW12      30.08R
SHELBYVILLE    MOSUNNY   70  63  78 SW12      30.09R

$$

INZ033-034-041-042-049-050-058-059-271400-
EAST CENTRAL INDIANA

CITY           SKY/WX    TMP DP  RH WIND       PRES   REMARKS
MUNCIE         SUNNY     69  62  78 SW9G18    30.05S

$$

INZ060-061-067>069-081>083-085>088-271400-
SOUTHWEST INDIANA

CITY           SKY/WX    TMP DP  RH WIND       PRES   REMARKS
EVANSVILLE     MOSUNNY   70  64  81 S9        30.11S
HUNTINGBURG *+ SUNNY     68  63  83 S8        30.12S

$$

INZ062-063-066-070>080-084-089>092-271400-
SOUTH CENTRAL AND SOUTHEAST INDIANA

CITY           SKY/WX    TMP DP  RH WIND       PRES   REMARKS
BLOOMINGTON    SUNNY     69  63  81 SW12      30.10R
MADISON *+     SUNNY     70  63  78 SW13      30.16R
SEYMOUR +      SUNNY     70  64  83 S10       30.12R

$$



USA.gov is the U.S. government's official web portal to all federal, state and local government web resources and services.